Weather Roundup
Issued by NWS

Home | Current Version | Previous Version | Graphics & Text | Print | Product List | Glossary Off
Versions: 1 2 3 4 5 6 7 8 9 10 11 12 13 14 15 16 17 18 19 20 21 22 23 24 25 26 27 28 29 30 31 32 33 34 35 36 37 38 39 40 41 42 43 44 45 46 47 48 49 50

000
NZUS93 KARX 301159
HRRWXR

CURRENT HOURLY OBSERVATIONS ACROSS
MUCH OF THE UPPER MISSISSIPPI VALLEY
NATIONAL WEATHER SERVICE LA CROSSE WI
700 AM CDT WED JUL 30 2014


...SOUTHEAST MINNESOTA...


CITY           SKY/WX    TMP DP  RH WIND       PRES   REMARKS
ROCHESTER      CLEAR     57  54  89 NW7       30.10R
ROCHESTER/MAYO FAIR      58  55  90 CALM      30.09R
WINONA         MOSUNNY   59  57  94 NW5       30.07S
AUSTIN         CLEAR     55  54  94 NW5       30.09R
ALBERT LEA     CLEAR     57  54  88 CALM      30.10R
DODGE CENTER   CLEAR     59  55  88 NW5       30.09S
PRESTON        CLEAR     57  57 100 N7        30.09R
OWATONNA       CLEAR     54  52  94 CALM      30.09F
FARIBAULT      CLEAR     57  54  88 CALM      30.09S
$$

...ELSEWHERE IN MINNESOTA...


CITY           SKY/WX    TMP DP  RH WIND       PRES   REMARKS
MINNEAPOLIS    CLEAR     62  57  83 CALM      30.08S
INTNL FALLS    PTSUNNY   52  51  97 CALM      30.05S
DULUTH         MOSUNNY   52  50  93 CALM      30.08S
RED WING       SUNNY     55  54  94 CALM      30.07S FOG
REDWOOD FALLS  CLEAR     56  54  93 NW6       30.12R
MANKATO        CLEAR     55  52  88 W5        30.10S
WORTHINGTON    CLEAR     52  48  87 W5        30.16R
FAIRMONT       CLEAR     57  50  77 NW7       30.12R
$$

...SOUTHWEST WISCONSIN...


CITY           SKY/WX    TMP DP  RH WIND       PRES   REMARKS
LA CROSSE      NOT AVBL
PRAIRIE DU CHI SUNNY     57  54  91 CALM      30.06S
BOSCOBEL       FOG       58  57  97 CALM      30.07R VSB<1/4
LONE ROCK      NOT AVBL
PLATTEVILLE      N/A     55  54  95 CALM      30.07R VSB 3/4
FORT MC COY    FOG       53  53  99 CALM      30.07S VSB<1/4
VIROQUA        CLOUDY    55  55 100 CALM      30.07S VSB 1/2
WIS DELLS      SUNNY     53  51  94 CALM      30.05R
$$

...ELSEWHERE IN WISCONSIN...


CITY           SKY/WX    TMP DP  RH WIND       PRES   REMARKS
MILWAUKEE      MOSUNNY   61  56  83 NW6       30.03R
MADISON        SUNNY     60  56  86 NW3       30.04R
GREEN BAY      MOSUNNY   58  56  93 NW3       30.04R
EAU CLAIRE     NOT AVBL
BLACK RVR FLS  FOG       50  50 100 CALM      30.06S VSB<1/4
MEDFORD        FOG       51  51 100 CALM      30.08R VSB<1/4
WAUSAU         CLOUDY    52  52 100 NW6       30.06R FOG
WIS RAPIDS     SUNNY     56  54  93 N3        30.07R
MARSHFIELD     SUNNY     57  54  89 N3        30.06S
RICE LAKE      FOG       55  55  97 N3        30.10S VSB<1/4
$$

...NORTHEAST IOWA...


CITY           SKY/WX    TMP DP  RH WIND       PRES   REMARKS
WATERLOO       CLEAR     56  54  93 CALM      30.08R
DUBUQUE        SUNNY     58  56  93 CALM      30.06S
DECORAH        SUNNY     57  55  94 CALM      30.07R
MASON CITY     CLEAR     56  54  93 NW8       30.12R
CHARLES CITY   CLEAR     55  54  94 NW5       30.09S
OELWEIN        CLEAR     55  55 100 NW6       30.08S
$$

...ELSEWHERE IN IOWA...


CITY           SKY/WX    TMP DP  RH WIND       PRES   REMARKS
DES MOINES     PTCLDY    59  54  83 CALM      30.10S
IOWA CITY      CLEAR     59  56  89 CALM      30.08S
FORT DODGE     CLEAR     54  50  87 CALM      30.12R
MARSHALLTOWN   CLEAR     56  54  93 W6        30.09R
CEDAR RAPIDS   CLEAR     55  50  83 NW3       30.07R
$$

...NORTHERN ILLINOIS...


CITY           SKY/WX    TMP DP  RH WIND       PRES   REMARKS
CHICAGO-OHARE  PTSUNNY   63  54  72 W7        30.02S
DUPAGE         CLOUDY    62  56  80 W7        30.03S
CHICAGO-MIDWAY PTSUNNY   65  57  75 W3        30.02S
MOLINE         SUNNY     58  55  90 CALM      30.06R
ROCKFORD       MOSUNNY   60  56  86 W3        30.06S
STERLING       SUNNY     61  55  82 W5        30.06R
PEORIA         SUNNY     62  56  80 CALM      30.06R
$$

NOTE: "FAIR" INDICATES FEW OR NO CLOUDS BELOW 12,000 FEET WITH NO
SIGNIFICANT WEATHER AND/OR OBSTRUCTIONS TO VISIBILITY. WIND
SPEEDS ARE IN MILES-PER-HOUR.



USA.gov is the U.S. government's official web portal to all federal, state and local government web resources and services.